STARLINK-2410, 47825

Orbit data source: Space-Track

STARLINK-2410, 47825 is a payload satellite owned by SpaceX/Seattle (US) in LEO that was launched on Thu, 11 Mar 2021 UTC via an FALCON 9 launch vehicle from the Air Force Eastern Test Range (AFETR). Payload-class satellites include a variety of spacecraft equipped with specific instruments for various scientific and technological missions. These include communications satellites like Starlink; space stations such as the ISS; scientific satellites like the Hubble; Earth observation satellites from companies like Planet Labs, Umbra, and HawkEye 360; GPS; miniature CubeSats for education and research; and military/defense satellites.

Loading next visibility...
Identifier
47825, 2021-018AQ
Orbit
LEO
Country
Flag of USUS
Related business
Manufacturer
SpaceX/Seattle
Mission
Operational Commercial Communications
Bus & Motor
STARLINK, Unknown motor
Mass
260 kg wet, ~248 kg dry
Launch date (UTC)
2021-03-11 (5 years ago)
Launch vehicle
FALCON 9
Launch site
Air Force Eastern Test Range (AFETR)
Object type
Payload
Rocket body
Debris
Shape & HBR
Box + 1 Pan, 10.1 m
Radar Cross Section
13.562 m², Large (>1 m²)

Expand to show TLE details & history
Last TLE update: 12 hours ago

TLE from 12 hours ago
0 STARLINK-2410
1 47825U 21018AQ  26035.40227365  .00004596  00000-0  16717-3 0  9992
2 47825  53.1614  37.4603 0001373  93.6330 266.4828 15.30206493271637
Epoch: 2026-02-04T09:39Z
TLE epoch observation values (Epoch: 2026-02-04T09:39:16.443Z)
Latitude
-0°
Longitude
118.07242°
Altitude
476.153 km
Speed
7.629 km/s
True Right ascension
02h 29m 50s
True Declination
0° 00' 00"
Sunlit
Object was in daylight at epoch
Visualization orbit readout
Latitude
Unknown
Longitude
Unknown
Altitude
Unknown
Speed
Unknown
Apparent Right ascension
Unknown
Apparent Declination
Unknown
Sunlit
N/A
Visualization observer readout
Local Sidereal Time
23:27:58
Azimuth
Unknown
Elevation
Unknown
Doppler factor
Unknown
Orbital elements
Apogee altitude
476.393 km
Perigee altitude
474.511 km
Semi-major axis
6,853.589 km
Eccentricity
0.00014
Inclination
53.1614°
RAAN
37.4603°
Arg. of periapsis
93.633°
True anomaly
266.4671°
Mean anomaly
266.4828°
Eccentric anomaly
266.47495°
Mean motion
3.82531 °/min
Orbital period
94.11 mins
BSTAR
0.00016717
Loading maneuver chart data...
Computing Atmospheric mass density...
Loading historical data...
Loading historical data...
Loading historical data...
Loading historical data...
Loading historical data...
Loading historical data...
Loading historical data...

Documentation

Showing up to 5 results
|